Find OneWeb SL0549

NORAD ID: 56051 Int'l Des: 2023-043 Owner: ONEWEBN Country: UK Constellation: oneweb operational
LEOCIRCULARPOLARONEWEB_TYPE

現在のビュー

3D地球を読み込み中...

About OneWeb SL0549

OneWeb SL0549 (NORAD 56051) is a oneweb constellation satellite launched Mar 26, 2023 by ONEWEBN of UK. It operates in LEO, CIRCULAR, POLAR, ONEWEB_TYPE orbit with a mass of 148.00 kg.

OneWeb SL0549について

説明を読み込み中...

次回通過

Passes for default location (London). Set your location on the main map for personalized predictions.

高度履歴

Loading altitude history...

軌道要素

1 56051U 23043F 26169.60477966 .00000029 00000-0 38331-4 0 9991
2 56051 87.9251 243.6985 0002145 109.4930 250.6436 13.21825837158411
Epoch: Jun 18, 2026 • Age: 7 hours

現在のステータス

高度 1180.6 km
速度 7.26 km/s
衛星直下点 4.47°N, 9.59°E
打ち上げ日 Mar 26, 2023
運用期間 3.2 years
タイプ internet

技術仕様

分類 Payload
質量 148.00 kg
乾燥質量 140.00 kg
総質量 148.00 kg
長さ 1.30 m
直径 1.00 m
スパン 5.00 m
形状 Trapezoid+2 pan
製造者 ONEWUS
バスタイプ ARROW
フェーズステータス In Orbit
所有者/国 ONEWEBN/UK

Most Searched